Weather History for Houston Hull, TX

Change the Weather History Date:

Friday, December 13, 2013

  Actual Average Record
Temperature  
Mean Temperature 51 °F -  
Max Temperature 59 °F 63 °F 84 °F (1948)
Min Temperature 43 °F 42 °F 21 °F (1989)
Degree Days  
Heating Degree Days 14    
Growing Degree Days 1 (Base 50)    
Moisture  
Dew Point 49 °F    
Average Humidity 87    
Maximum Humidity 100    
Minimum Humidity 68    
Precipitation  
Precipitation 0.03 in - - ()
Sea Level Pressure  
Sea Level Pressure 30.03 in    
Wind  
Wind Speed 3 mph (NE)    
Max Wind Speed 10 mph    
Max Gust Speed 16 mph    
Visibility 6 miles    
Events Rain    
Averages and records for this station are not official NWS values.
T = Trace of Precipitation, MM = Missing Value Source: NWS Daily Summary

Daily Weather History Graph

Daily Weather History Graph

Search for Another Location

Airport:

Trip Planner

Search our weather history database for the weather conditions in past years. The results will help you decide how hot, cold, wet, or windy it might be!

Date:

Astronomy

Dec. 13, 2013 Rise Set
Actual Time 7:08 AM CST 5:25 PM CST
Civil Twilight 6:42 AM CST 5:51 PM CST
Nautical Twilight 6:13 AM CST 6:20 PM CST
Astronomical Twilight 5:43 AM CST 6:50 PM CST
Moon 2:58 PM CST (12/13) 3:43 AM CST (12/13)
Length of Visible Light 11h 08m
Length of Day
10h 16m
Waxing Gibbous, 88% of the Moon is Illuminated
Dec 13
Waxing Gibbous
Dec 17
Full
Dec 25
Last Quarter
Jan 1
New
Jan 7
First Quarter

Hourly Weather History & Observations

Time (CST) Temp. Windchill Dew Point Humidity Pressure Visibility Wind Dir Wind Speed Gust Speed Precip Events Conditions
12:53 AM 44.1 °F - 37.9 °F 79% 30.35 in 10.0 mi Calm Calm - N/A   Clear
1:53 AM 43.0 °F - 37.9 °F 82% 30.31 in 10.0 mi Calm Calm - N/A   Clear
2:53 AM 46.9 °F - 37.0 °F 68% 30.27 in 10.0 mi East 3.5 mph - N/A   Clear
3:53 AM 46.9 °F - 37.0 °F 68% 30.25 in 10.0 mi Calm Calm - N/A   Clear
4:53 AM 46.0 °F 43.9 °F 37.9 °F 73% 30.23 in 10.0 mi NNE 4.6 mph - N/A   Clear
5:53 AM 45.0 °F 43.5 °F 37.9 °F 76% 30.22 in 10.0 mi North 3.5 mph - N/A   Clear
6:53 AM 46.0 °F 44.8 °F 39.9 °F 79% 30.22 in 10.0 mi North 3.5 mph - N/A   Mostly Cloudy
7:53 AM 48.0 °F - 39.0 °F 71% 30.20 in 10.0 mi ENE 5.8 mph - N/A   Clear
8:53 AM 50.0 °F - 41.0 °F 71% 30.17 in 10.0 mi East 4.6 mph - N/A   Mostly Cloudy
9:35 AM 51.8 °F - 42.8 °F 71% 30.16 in 10.0 mi East 4.6 mph - N/A   Overcast
9:53 AM 51.1 °F - 43.0 °F 74% 30.16 in 10.0 mi East 5.8 mph - N/A   Overcast
10:53 AM 54.0 °F - 46.0 °F 75% 30.13 in 10.0 mi East 5.8 mph - N/A   Overcast
11:53 AM 55.9 °F - 48.0 °F 75% 30.09 in 10.0 mi ESE 4.6 mph - N/A   Overcast
12:53 PM 57.0 °F - 50.0 °F 77% 30.02 in 8.0 mi East 3.5 mph - N/A   Overcast
1:53 PM 57.0 °F - 52.0 °F 83% 29.99 in 9.0 mi ENE 8.1 mph - N/A   Overcast
2:53 PM 57.9 °F - 54.0 °F 87% 29.97 in 10.0 mi ENE 4.6 mph - N/A   Overcast
3:38 PM 59.0 °F - 55.4 °F 88% 29.94 in 7.0 mi ENE 6.9 mph - N/A   Overcast
3:53 PM 59.0 °F - 55.0 °F 87% 29.95 in 7.0 mi ENE 4.6 mph - N/A   Overcast
4:53 PM 57.9 °F - 55.9 °F 93% 29.91 in 4.0 mi ESE 6.9 mph - 0.00 in Rain Light Rain
5:16 PM 57.2 °F - 55.4 °F 94% 29.89 in 3.0 mi ESE 5.8 mph - 0.00 in   Overcast
5:53 PM 57.9 °F - 55.9 °F 93% 29.87 in 4.0 mi ESE 8.1 mph 16.1 mph 0.00 in   Overcast
6:53 PM 57.9 °F - 57.0 °F 97% 29.92 in 3.0 mi NE 4.6 mph - 0.00 in   Overcast
7:03 PM 57.2 °F - 57.2 °F 100% 29.91 in 2.5 mi NE 4.6 mph - N/A   Overcast
7:53 PM 57.9 °F - 55.9 °F 93% 29.92 in 2.5 mi Calm Calm - 0.00 in   Overcast
8:27 PM 57.2 °F - 57.2 °F 100% 29.93 in 1.8 mi Calm Calm - 0.02 in Rain Light Rain
8:51 PM 55.4 °F - 55.4 °F 100% 29.94 in 2.5 mi WNW 10.4 mph - 0.02 in Rain Light Rain
8:53 PM 55.9 °F - 54.0 °F 93% 29.95 in 2.5 mi NW 8.1 mph - 0.02 in Rain Light Rain
9:11 PM 55.4 °F - 53.6 °F 94% 29.95 in 3.0 mi NW 6.9 mph - 0.01 in   Overcast
9:49 PM 53.6 °F - 53.6 °F 100% 29.94 in 3.0 mi WNW 5.8 mph - 0.01 in   Overcast
9:53 PM 54.0 °F - 53.1 °F 97% 29.95 in 3.0 mi NW 5.8 mph - 0.01 in   Overcast
10:00 PM 53.6 °F - 53.6 °F 100% 29.94 in 3.0 mi WNW 5.8 mph - N/A   Overcast
10:28 PM 53.6 °F - 51.8 °F 94% 29.95 in 3.0 mi WNW 4.6 mph - 0.00 in Rain Light Rain
10:53 PM 53.1 °F - 51.1 °F 93% 29.94 in 3.0 mi NW 3.5 mph - 0.00 in   Mostly Cloudy
11:02 PM 53.6 °F - 51.8 °F 94% 29.93 in 3.0 mi Calm Calm - N/A   Scattered Clouds
11:23 PM 51.8 °F - 50.0 °F 94% 29.93 in 1.5 mi Calm Calm - N/A   Partly Cloudy
11:31 PM 51.8 °F - 51.8 °F 100% 29.93 in 0.8 mi Calm Calm - N/A   Mist
11:35 PM 51.8 °F - 51.8 °F 100% 29.93 in 1.2 mi WNW 3.5 mph - N/A   Scattered Clouds
11:53 PM 51.1 °F - 50.0 °F 96% 29.93 in 2.0 mi WNW 3.5 mph - N/A   Mostly Cloudy